CW4517 Weather Reports


time (UTC)temp
C
wind
direction
speed
KPH
gust
KPH
rain 1hr
cm
rain 24hr
cm
rain mn
cm
humidity
%
barometer
mb
20260902184909 33 237 4.8 12.9 0.00 0.00 0.00 64 1011.0
20260902184404 33 196 6.4 16.1 0.00 0.00 0.00 63 1011.1
20260902183858 32 199 6.4 16.1 0.00 0.00 0.00 63 1011.1
20260902183352 32 325 8.0 16.1 0.00 0.00 0.00 65 1011.1
20260902182841 32 202 8.0 16.1 0.00 0.00 0.00 66 1011.2
20260902182825 32 225 8.0 14.5 0.00 0.00 0.00 66 1011.2
20260902182057 32 248 6.4 16.1 0.00 0.00 0.00 66 1011.2
20260902181329 32 151 6.4 16.1 0.00 0.00 0.00 66 1011.2
20260902180822 32 197 6.4 12.9 0.00 0.00 0.00 67 1011.2
20260902180311 32 217 8.0 14.5 0.00 0.00 0.00 67 1011.2
20260902175810 32 208 6.4 14.5 0.00 0.00 0.00 66 1011.3
20260902175307 32 200 6.4 14.5 0.00 0.00 0.00 67 1011.3
20260902174757 32 221 6.4 14.5 0.00 0.00 0.00 66 1011.3
20260902174253 32 227 8.0 14.5 0.00 0.00 0.00 65 1011.4
20260902173743 32 229 8.0 14.5 0.00 0.00 0.00 66 1011.4
20260902173241 32 229 6.4 14.5 0.00 0.00 0.00 66 1011.4
20260902172735 32 241 8.0 17.7 0.00 0.00 0.00 66 1011.4
20260902172227 31 229 8.0 17.7 0.00 0.00 0.00 67 1011.4
20260902171726 31 194 6.4 14.5 0.00 0.00 0.00 66 1011.4
20260902171224 31 243 8.0 16.1 0.00 0.00 0.00 66 1011.7
20260902171202 31 250 8.0 16.1 0.00 0.00 0.00 67 1011.7
20260902170442 31 222 6.4 16.1 0.00 0.00 0.00 67 1011.7
20260902165721 31 225 4.8 12.9 0.00 0.00 0.00 68 1011.8
20260902165221 31 230 6.4 14.5 0.00 0.00 0.00 69 1011.8
20260902164722 31 249 6.4 14.5 0.00 0.00 0.00 69 1011.8
20260902164218 31 248 6.4 14.5 0.00 0.00 0.00 69 1011.9
20260902163719 30 248 6.4 16.1 0.00 0.00 0.00 69 1011.9
20260902162719 30 227 6.4 16.1 0.00 0.00 0.00 70 1011.9
20260902162219 30 247 8.0 17.7 0.00 0.00 0.00 70 1011.9
20260902161720 30 242 8.0 17.7 0.00 0.00 0.00 70 1011.9
20260902161214 30 220 8.0 22.5 0.00 0.00 0.00 71 1011.9
20260902160700 30 257 8.0 22.5 0.00 0.00 0.00 71 1011.9
20260902160409 29 329 6.4 14.5 0.00 0.00 0.00 73 1011.9
20260902155638 29 202 6.4 16.1 0.00 0.00 0.00 72 1011.6
20260902155353 29 148 8.0 16.1 0.00 0.00 0.00 73 1011.6
20260902154613 29 236 8.0 12.9 0.00 0.00 0.00 72 1011.6
20260902154544 29 230 8.0 16.1 0.00 0.00 0.00 73 1011.7
20260902153556 28 219 8.0 17.7 0.00 0.00 0.00 73 1011.7
20260902153045 28 235 8.0 17.7 0.00 0.00 0.00 72 1011.7
20260902152801 28 209 8.0 16.1 0.00 0.00 0.00 75 1011.5
20260902152038 28 205 6.4 14.5 0.00 0.00 0.00 74 1011.5
20260902151532 28 235 4.8 11.3 0.00 0.00 0.00 75 1011.5
20260902151248 28 214 6.4 14.5 0.00 0.00 0.00 76 1011.4
20260902150736 27 219 8.0 16.1 0.00 0.00 0.00 76 1011.4
20260902150014 27 221 6.4 16.1 0.00 0.00 0.00 76 1011.4
20260902145510 27 205 6.4 14.5 0.00 0.00 0.00 76 1011.6
20260902145002 27 221 6.4 14.5 0.00 0.00 0.00 76 1011.6
20260902144457 27 229 8.0 19.3 0.00 0.00 0.00 76 1011.6
20260902143950 27 238 9.7 19.3 0.00 0.00 0.00 75 1011.6
20260902143440 27 217 8.0 16.1 0.00 0.00 0.00 76 1011.6
20260902142934 27 253 6.4 17.7 0.00 0.00 0.00 78 1011.7
20260902142432 27 140 8.0 17.7 0.00 0.00 0.00 78 1011.7
20260902141927 27 201 8.0 16.1 0.00 0.00 0.00 77 1011.7
20260902141643 26 211 6.4 12.9 0.00 0.00 0.00 78 1011.9
20260902140916 26 202 6.4 16.1 0.00 0.00 0.00 78 1011.9
20260902140403 26 220 8.0 17.7 0.00 0.00 0.00 78 1011.9
20260902135903 26 205 6.4 17.7 0.00 0.00 0.00 79 1011.9
20260902135357 26 202 4.8 16.1 0.00 0.00 0.00 80 1011.9
20260902135112 25 234 4.8 11.3 0.00 0.00 0.00 80 1011.9
20260902134341 25 209 4.8 11.3 0.00 0.00 0.00 81 1012.0
20260902133839 25 225 4.8 11.3 0.00 0.00 0.00 82 1012.0
20260902133815 25 225 4.8 12.9 0.00 0.00 0.00 82 1012.0
20260902132828 24 215 3.2 12.9 0.00 0.00 0.00 83 1012.0
20260902132320 24 175 3.2 8.0 0.00 0.00 0.00 83 1012.0
20260902131814 24 225 3.2 6.4 0.00 0.00 0.00 83 1012.0
20260902131308 24 220 1.6 6.4 0.00 0.00 0.00 83 1012.1
20260902130802 24 219 1.6 6.4 0.00 0.00 0.00 83 1012.1
20260902130252 24 229 3.2 6.4 0.00 0.00 0.00 83 1012.1
20260902125750 24 213 3.2 8.0 0.00 0.00 0.00 83 1011.9
20260902125245 24 215 1.6 8.0 0.00 0.00 0.00 83 1011.9
20260902124738 24 179 3.2 6.4 0.00 0.00 0.00 83 1011.9
20260902124232 23 220 3.2 8.0 0.00 0.00 0.00 83 1012.0
20260902123728 23 212 1.6 9.7 0.00 0.00 0.00 84 1012.0
20260902123228 23 234 1.6 9.7 0.00 0.00 0.00 84 1012.0
20260902122728 23 178 1.6 6.4 0.00 0.00 0.00 84 1012.0
20260902122225 23 200 3.2 9.7 0.00 0.00 0.00 84 1012.0
20260902121726 23 234 3.2 9.7 0.00 0.00 0.00 84 1012.0
20260902121223 23 198 3.2 6.4 0.00 0.00 0.00 84 1011.9
20260902120723 23 209 1.6 6.4 0.00 0.00 0.00 84 1011.9
20260902120228 23 163 1.6 6.4 0.00 0.00 0.00 84 1011.9
20260902115723 23 224 1.6 6.4 0.00 0.00 0.00 84 1011.9
20260902115448 23 175 1.6 3.2 0.00 0.00 0.00 84 1011.9
20260902114723 23 200 1.6 9.7 0.00 0.00 0.00 84 1011.9
20260902114217 23 221 3.2 9.7 0.00 0.00 0.00 84 1011.9
20260902113705 23 229 3.2 9.7 0.00 0.00 0.00 84 1011.9
20260902113155 23 227 4.8 9.7 0.00 0.00 0.00 84 1011.9
20260902112910 23 225 4.8 9.7 0.00 0.00 0.00 84 1011.9
20260902112138 23 234 3.2 8.0 0.00 0.00 0.00 84 1011.9
20260902111638 23 218 3.2 8.0 0.00 0.00 0.00 84 1011.9
20260902111131 23 208 3.2 8.0 0.00 0.00 0.00 84 1011.8
20260902110626 23 234 1.6 8.0 0.00 0.00 0.00 84 1011.8
20260902110120 23 213 1.6 8.0 0.00 0.00 0.00 84 1011.8
20260902105609 23 215 1.6 3.2 0.00 0.00 0.00 84 1011.8
20260902105328 23 198 1.6 8.0 0.00 0.00 0.00 84 1011.8
20260902104602 23 229 1.6 8.0 0.00 0.00 0.00 84 1011.8
20260902104055 23 182 1.6 8.0 0.00 0.00 0.00 84 1011.8
20260902103549 23 211 1.6 8.0 0.00 0.00 0.00 84 1011.8
20260902103038 23 217 1.6 8.0 0.00 0.00 0.00 84 1011.8
20260902102538 23 203 1.6 8.0 0.00 0.00 0.00 84 1011.9
20260902102033 23 182 1.6 6.4 0.00 0.00 0.00 84 1011.9
20260902101525 23 223 1.6 4.8 0.00 0.00 0.00 84 1011.9
20260902101019 23 197 1.6 4.8 0.00 0.00 0.00 84 1011.8
20260902100513 23 190 1.6 4.8 0.00 0.00 0.00 84 1011.8
20260902100007 23 230 0.0 4.8 0.00 0.00 0.00 84 1011.8
20260902095456 23 190 1.6 4.8 0.00 0.00 0.00 84 1011.6
20260902094955 23 227 0.0 4.8 0.00 0.00 0.00 84 1011.6
20260902094450 23 170 0.0 1.6 0.00 0.00 0.00 84 1011.6
20260902093939 23 196 0.0 0.0 0.00 0.00 0.00 84 1011.6
20260902093438 23 190 0.0 0.0 0.00 0.00 0.00 84 1011.6
20260902092928 23 190 0.0 0.0 0.00 0.00 0.00 84 1011.6
20260902092425 23 183 0.0 1.6 0.00 0.00 0.00 84 1011.6
20260902091920 23 175 0.0 1.6 0.00 0.00 0.00 84 1011.6
20260902091413 23 204 0.0 1.6 0.00 0.00 0.00 84 1011.7
20260902090908 23 219 1.6 4.8 0.00 0.00 0.00 84 1011.7
20260902090400 23 219 1.6 4.8 0.00 0.00 0.00 84 1011.7
20260902085855 23 223 3.2 4.8 0.00 0.00 0.00 84 1011.6
20260902085607 23 225 3.2 4.8 0.00 0.00 0.00 84 1011.6
20260902084844 23 225 3.2 4.8 0.00 0.00 0.00 84 1011.6
20260902084338 24 234 3.2 6.4 0.00 0.00 0.00 83 1011.4
20260902083831 24 227 3.2 6.4 0.00 0.00 0.00 83 1011.4
20260902083326 24 223 3.2 4.8 0.00 0.00 0.00 83 1011.4
20260902082814 24 223 3.2 6.4 0.00 0.00 0.00 83 1011.3
20260902082312 24 232 3.2 6.4 0.00 0.00 0.00 83 1011.3
20260902081801 24 228 3.2 8.0 0.00 0.00 0.00 83 1011.3
20260902081249 24 225 3.2 8.0 0.00 0.00 0.00 83 1011.3
20260902081229 24 229 3.2 8.0 0.00 0.00 0.00 83 1011.3
20260902080238 24 207 3.2 8.0 0.00 0.00 0.00 83 1011.3
20260902075739 24 211 3.2 6.4 0.00 0.00 0.00 83 1011.3
20260902075238 24 218 3.2 6.4 0.00 0.00 0.00 83 1011.3
20260902074739 24 138 3.2 8.0 0.00 0.00 0.00 83 1011.3
20260902074239 24 198 3.2 8.0 0.00 0.00 0.00 83 1011.2
20260902073738 24 200 3.2 8.0 0.00 0.00 0.00 83 1011.2
20260902073239 24 181 3.2 8.0 0.00 0.00 0.00 83 1011.2
20260902072740 24 176 1.6 4.8 0.00 0.00 0.00 84 1011.3
20260902072232 24 209 1.6 4.8 0.00 0.00 0.00 84 1011.3
20260902071728 24 204 1.6 4.8 0.00 0.00 0.00 84 1011.3
20260902071217 24 191 1.6 6.4 0.00 0.00 0.00 84 1011.4
20260902070715 24 208 1.6 6.4 0.00 0.00 0.00 83 1011.4
20260902070424 24 215 0.0 3.2 0.00 0.00 0.00 83 1011.4
20260902065702 24 175 0.0 3.2 0.00 0.00 0.00 84 1011.4
20260902065158 24 173 1.6 3.2 0.00 0.00 0.00 84 1011.4
20260902064916 24 153 1.6 4.8 0.00 0.00 0.00 83 1011.4
20260902064144 24 254 1.6 4.8 0.00 0.00 0.00 83 1011.4
20260902063900 25 254 1.6 4.8 0.00 0.00 0.00 83 1011.4
20260902063132 25 178 1.6 4.8 0.00 0.00 0.00 83 1011.4
20260902062626 25 179 1.6 4.8 0.00 0.00 0.00 83 1011.3
20260902062121 25 204 1.6 4.8 0.00 0.00 0.00 82 1011.3
20260902061615 25 232 1.6 6.4 0.00 0.00 0.00 82 1011.3
20260902061104 25 222 3.2 6.4 0.00 0.00 0.00 82 1011.4
20260902060604 25 220 3.2 8.0 0.00 0.00 0.00 82 1011.4
20260902060058 25 178 3.2 8.0 0.00 0.00 0.00 82 1011.4
20260902055813 25 183 3.2 6.4 0.00 0.00 0.00 82 1011.4
20260902055047 25 182 3.2 6.4 0.00 0.00 0.00 82 1011.4
20260902054538 25 192 3.2 6.4 0.00 0.00 0.00 82 1011.4
20260902054255 25 213 1.6 6.4 0.00 0.00 0.00 82 1011.4
20260902053521 25 219 1.6 6.4 0.00 0.00 0.00 81 1011.4
20260902053021 25 169 3.2 6.4 0.00 0.00 0.00 81 1011.4
20260902052600 25 229 3.2 6.4 0.00 0.00 0.00 81 1011.4
20260902051729 25 200 1.6 6.4 0.00 0.00 0.00 82 1011.4
20260902051216 25 208 1.6 6.4 0.00 0.00 0.00 82 1011.4
20260902050450 25 197 1.6 6.4 0.00 0.00 0.00 82 1011.4
20260902045942 25 186 1.6 8.0 0.00 0.00 0.00 82 1011.5
20260902045441 25 223 3.2 8.0 0.00 0.00 0.00 82 1011.5
20260902044935 25 225 1.6 4.8 0.00 0.00 0.00 82 1011.5
20260902044428 25 197 1.6 6.4 0.00 0.00 0.00 82 1011.7
20260902043923 25 255 1.6 6.4 0.00 0.00 0.00 82 1011.7
20260902043417 25 185 1.6 4.8 0.00 0.00 0.00 82 1011.7
20260902042912 25 246 1.6 4.8 0.00 0.00 0.00 82 1011.6
20260902042401 25 181 1.6 3.2 0.00 0.00 0.00 82 1011.6
20260902041858 25 184 1.6 3.2 0.00 0.00 0.00 82 1011.6
20260902041352 25 213 1.6 4.8 0.00 0.00 0.00 82 1011.7
20260902041105 26 207 0.0 4.8 0.00 0.00 0.00 82 1011.7
20260902040341 26 192 0.0 3.2 0.00 0.00 0.00 82 1011.7
20260902035831 26 186 0.0 3.2 0.00 0.00 0.00 82 1011.6
20260902035329 26 223 0.0 3.2 0.00 0.00 0.00 81 1011.6
20260902034822 26 223 1.6 4.8 0.00 0.00 0.00 81 1011.6
20260902034541 26 223 1.6 4.8 0.00 0.00 0.00 81 1011.6
20260902033810 26 223 1.6 4.8 0.00 0.00 0.00 81 1011.6
20260902033305 26 219 3.2 6.4 0.00 0.00 0.00 81 1011.6
20260902032758 26 218 3.2 6.4 0.00 0.00 0.00 81 1011.7
20260902032512 26 225 3.2 6.4 0.00 0.00 0.00 81 1011.7
20260902031746 26 225 3.2 6.4 0.00 0.00 0.00 81 1011.7
20260902031240 26 227 4.8 8.0 0.00 0.00 0.00 81 1011.6
20260902030956 26 234 3.2 8.0 0.00 0.00 0.00 81 1011.6
20260902030229 26 208 3.2 8.0 0.00 0.00 0.00 81 1011.6
20260902025723 26 232 3.2 8.0 0.00 0.00 0.00 81 1011.6
20260902025215 26 234 3.2 8.0 0.00 0.00 0.00 80 1011.6
20260902024713 26 232 3.2 9.7 0.00 0.00 0.00 80 1011.6
20260902024209 26 229 3.2 9.7 0.00 0.00 0.00 80 1011.5
20260902024200 27 225 3.2 6.4 0.00 0.00 0.00 80 1011.5
20260902023209 27 217 3.2 8.0 0.00 0.00 0.00 80 1011.5
20260902022710 27 197 3.2 8.0 0.00 0.00 0.00 80 1011.5
20260902022210 27 224 4.8 8.0 0.00 0.00 0.00 80 1011.5
20260902021710 27 232 4.8 9.7 0.00 0.00 0.00 80 1011.5
20260902021210 27 225 6.4 9.7 0.00 0.00 0.00 79 1011.4
20260902020710 27 221 4.8 9.7 0.00 0.00 0.00 79 1011.4
20260902020205 27 230 4.8 9.7 0.00 0.00 0.00 80 1011.4
20260902015651 27 223 4.8 8.0 0.00 0.00 0.00 80 1011.3
20260902015144 27 219 4.8 8.0 0.00 0.00 0.00 80 1011.3
20260902014637 27 236 3.2 6.4 0.00 0.00 0.00 80 1011.3
20260902014127 27 246 3.2 8.0 0.00 0.00 0.00 80 1011.0
20260902013625 27 209 1.6 8.0 0.00 0.00 0.00 80 1011.0
20260902013119 28 216 1.6 6.4 0.00 0.00 0.00 80 1011.0
20260902012615 28 219 3.2 9.7 0.00 0.00 0.00 80 1010.9
20260902012108 28 221 3.2 9.7 0.00 0.00 0.00 79 1010.9
20260902011603 28 226 1.6 8.0 0.00 0.00 0.00 79 1010.9
20260902011056 28 217 1.6 4.8 0.00 0.00 0.00 79 1010.8
20260902010545 28 231 1.6 4.8 0.00 0.00 0.00 79 1010.8
20260902010043 28 232 1.6 4.8 0.00 0.00 0.00 79 1010.8
20260902005539 29 243 0.0 3.2 0.00 0.00 0.00 78 1010.7
20260902005033 29 211 0.0 3.2 0.00 0.00 0.00 78 1010.7
20260902004526 29 183 0.0 0.0 0.00 0.00 0.00 78 1010.7
20260902004021 30 184 0.0 0.0 0.00 0.00 0.00 77 1010.7
20260902003514 30 204 0.0 0.0 0.00 0.00 0.00 77 1010.7
20260902003226 30 202 0.0 0.0 0.00 0.00 0.00 77 1010.7
20260902002501 30 171 0.0 1.6 0.00 0.00 0.00 76 1010.8
20260902001956 30 205 1.6 8.0 0.00 0.00 0.00 76 1010.8
20260902001450 30 176 1.6 8.0 0.00 0.00 0.00 75 1010.8
20260902000943 31 213 1.6 4.8 0.00 0.08 0.00 74 1010.8
20260902000655 31 213 1.6 4.8 0.00 0.10 0.00 74 1010.8
20260901235931 31 240 0.0 4.8 0.00 0.10 0.00 74 1010.8
20260901235426 31 213 0.0 4.8 0.00 0.10 0.00 74 1010.8
20260901234919 31 234 1.6 6.4 0.00 0.10 0.00 73 1010.8
20260901234904 32 221 1.6 6.4 0.00 0.10 0.00 72 1010.9
20260901233903 32 224 0.0 4.8 0.00 0.10 0.00 71 1010.9
20260901233400 32 198 1.6 4.8 0.00 0.10 0.00 70 1010.9
20260901232855 32 205 3.2 4.8 0.00 0.10 0.00 70 1010.9
20260901232349 32 209 1.6 8.0 0.00 0.10 0.00 69 1010.9
20260901231844 32 196 0.0 8.0 0.00 0.10 0.00 70 1010.9
20260901231334 32 221 1.6 8.0 0.00 0.10 0.00 70 1010.9
20260901230830 32 224 3.2 9.7 0.00 0.10 0.00 69 1010.9
20260901230327 33 244 3.2 9.7 0.00 0.10 0.00 69 1010.9
20260901225826 33 221 3.2 8.0 0.00 0.10 0.00 69 1010.8
20260901225327 33 200 4.8 9.7 0.00 0.10 0.00 68 1010.8
20260901224827 33 234 4.8 12.9 0.00 0.10 0.00 68 1010.8
20260901224326 33 191 4.8 12.9 0.00 0.10 0.00 67 1010.9
20260901223825 33 236 1.6 12.9 0.00 0.10 0.00 66 1010.9
20260901223324 33 225 3.2 12.9 0.00 0.10 0.00 67 1010.9
20260901222828 33 221 4.8 12.9 0.00 0.10 0.00 65 1010.9
20260901222325 33 234 6.4 14.5 0.00 0.10 0.00 67 1010.9
20260901221824 33 240 4.8 14.5 0.00 0.10 0.00 67 1010.9
20260901221326 33 238 4.8 14.5 0.00 0.10 0.00 65 1010.8
20260901220820 33 228 4.8 14.5 0.00 0.10 0.00 65 1010.8
20260901220308 33 180 3.2 14.5 0.00 0.10 0.00 66 1010.8
20260901215756 33 263 4.8 14.5 0.00 0.10 0.00 65 1010.9
20260901215244 33 242 4.8 11.3 0.00 0.10 0.00 66 1010.9
20260901214736 33 232 4.8 11.3 0.00 0.10 0.00 67 1010.9
20260901214229 33 215 3.2 11.3 0.00 0.10 0.00 67 1010.9
20260901213722 33 173 3.2 11.3 0.00 0.10 0.00 67 1010.9
20260901213212 33 186 4.8 12.9 0.00 0.10 0.00 67 1010.9
20260901212710 33 230 4.8 12.9 0.00 0.10 0.00 67 1010.9
20260901212205 33 217 4.8 11.3 0.00 0.10 0.00 66 1010.9
20260901211658 33 228 4.8 9.7 0.00 0.10 0.00 65 1010.9
20260901211152 33 247 6.4 11.3 0.00 0.10 0.00 65 1010.9
20260901210646 33 227 6.4 14.5 0.00 0.10 0.00 65 1010.9
20260901210140 33 217 6.4 14.5 0.00 0.10 0.00 66 1010.9
20260901205851 33 206 4.8 14.5 0.00 0.10 0.00 65 1011.0
20260901205129 34 211 3.2 12.9 0.00 0.10 0.00 65 1011.0
20260901204623 33 182 4.8 12.9 0.00 0.10 0.00 66 1011.0
20260901204118 33 215 6.4 16.1 0.00 0.10 0.00 66 1011.1
20260901203611 33 225 4.8 16.1 0.00 0.10 0.00 66 1011.1
20260901203101 33 231 6.4 17.7 0.00 0.10 0.00 67 1011.1
20260901202559 33 224 6.4 17.7 0.00 0.10 0.00 66 1011.1
20260901202054 33 311 6.4 17.7 0.00 0.10 0.00 66 1011.1
20260901201546 33 165 6.4 17.7 0.00 0.10 0.00 66 1011.1
20260901201040 33 199 4.8 12.9 0.00 0.10 0.00 64 1011.2
20260901200534 33 200 4.8 12.9 0.00 0.10 0.00 66 1011.2
20260901200028 33 159 6.4 14.5 0.00 0.10 0.00 67 1011.2
20260901195517 33 208 8.0 17.7 0.00 0.10 0.00 66 1011.3
20260901195016 33 252 8.0 17.7 0.00 0.10 0.00 67 1011.3
20260901194512 33 214 6.4 17.7 0.00 0.10 0.00 67 1011.3
20260901194006 33 290 4.8 14.5 0.00 0.10 0.00 68 1011.4
20260901193458 33 190 4.8 14.5 0.00 0.10 0.00 67 1011.4
20260901192947 33 240 4.8 12.9 0.00 0.10 0.00 67 1011.4
20260901192446 33 186 6.4 12.9 0.00 0.10 0.00 67 1011.4
20260901191941 33 201 6.4 14.5 0.00 0.10 0.00 67 1011.4
20260901191434 32 223 6.4 14.5 0.00 0.10 0.00 68 1011.6
20260901191202 32 233 6.4 14.5 0.00 0.10 0.00 68 1011.6
20260901190423 32 247 6.4 14.5 0.00 0.10 0.00 69 1011.6
20260901190135 32 239 8.0 16.1 0.00 0.10 0.00 70 1011.7
20260901185407 32 243 9.7 16.1 0.00 0.10 0.00 70 1011.7